Saga Sapphire — 9HOF8 — position and weather

sailwx.info

Track history (hours):
 
Tides and Currents Weather Stations Pressure Air Temp Water Temp Dewpoint Dewpoint Depression Visibility Wind Speed Wind Dir Waves Ship Positions

Saga Sapphire

Last reported at 2014-Aug-30 01:00 UTC. Time now 2014-Aug-30 10:27 UTC.
Position N 52°06' W 005°42'.

Length 200 m; draft 8.4 m.

Type: Passenger vessel. MMSI: 256208000.

Wind from 270 at 24 knots

Waves 0.5 meters (2 feet), 3 second period

Barometer 1011.9 mb
Air temperature 14.9 ° C
Visibility: greater than 10.8 NM
Dewpoint 12.5 ° C
Water temperature 13.0 ° C

Date/timePositionNaut miles runAvg speedWind from/ knotsBaromVisibWave heightAir tempDewpointWater temp
2014-Aug-30 01:00N 52°06' W 005°42'8512.1 270 / 241011.910.8 0.514.912.513.0
2014-Aug-29 18:00N 53°24' W 004°48'2517.4 220 / 261005.910.8 1.016.214.115.0
2014-Aug-29 16:32N 53°33' W 004°08'1616.8
2014-Aug-29 15:34N 53°33' W 003°41'1413.8
2014-Aug-29 14:33N 53°32' W 003°18'13 9.4
2014-Aug-29 13:12N 53°24' W 003°00'0 0.0
2014-Aug-29 09:21N 53°24' W 003°00'0 0.0
2014-Aug-29 06:33N 53°24' W 003°00'4 3.5
2014-Aug-29 05:33N 53°28' W 003°03'7 7.4
2014-Aug-29 04:33N 53°31' W 003°14'1110.2
2014-Aug-29 03:30N 53°31' W 003°32'9510.0
2014-Aug-28 18:00N 52°42' W 005°48'88 4.3 180 / 241004.710.8 1.016.512.915.0
2014-Aug-27 21:33N 54°08' W 005°15'1313.5
2014-Aug-27 20:33N 54°20' W 005°04'1515.3
2014-Aug-27 19:34N 54°34' W 005°15'1413.8
2014-Aug-27 18:34N 54°44' W 005°32'1110.6
2014-Aug-27 17:34N 54°40' W 005°50'4 0.3
2014-Aug-27 06:30N 54°38' W 005°54'6 6.2
2014-Aug-27 05:34N 54°42' W 005°46'1211.8
2014-Aug-27 04:33N 54°52' W 005°36'1313.1
2014-Aug-27 03:33N 55°04' W 005°44'1212.4
2014-Aug-27 02:33N 55°14' W 005°58'1212.2
2014-Aug-27 01:34N 55°22' W 006°14'1414.1
2014-Aug-27 00:34N 55°27' W 006°37'1615.7
2014-Aug-26 23:34N 55°37' W 006°59'8615.4
2014-Aug-26 18:00N 54°42' W 008°54'612.5 090 / 101012.210.8 0.517.8 9.7
2014-Aug-26 17:29N 54°37' W 008°48'1212.6
2014-Aug-26 16:33N 54°36' W 008°28'2 0.3
2014-Aug-26 09:19N 54°38' W 008°26'0 0.0
2014-Aug-26 07:07N 54°38' W 008°26'0 0.0
2014-Aug-26 06:29N 54°38' W 008°26'6 6.0
2014-Aug-26 05:33N 54°34' W 008°34'3814.7
2014-Aug-26 03:00N 55°12' W 008°36'56 7.6 090 / 191006.010.8 0.514.3 9.9
2014-Aug-25 19:33N 55°31' W 007°03'10 9.5
2014-Aug-25 18:33N 55°32' W 006°46'610.9
2014-Aug-25 18:00N 55°30' W 006°36'511.6 140 / 121004.110.8 0.515.811.614.0
2014-Aug-25 17:33N 55°33' W 006°29'1413.8
2014-Aug-25 16:33N 55°34' W 006°04'14411.0
2014-Aug-25 03:33N 57°57' W 006°11'2239.5
2014-Aug-25 03:00N 58°12' W 006°42'2761.5 140 / 101013.810.8 0.511.3 7.1
2014-Aug-25 02:33N 58°08' W 005°52'1615.7
2014-Aug-25 01:33N 58°20' W 005°33'4715.5
2014-Aug-24 22:33N 58°51' W 004°24'1514.9
2014-Aug-24 21:33N 58°58' W 003°60'1514.5
2014-Aug-24 20:34N 59°06' W 003°36'1414.4
2014-Aug-24 19:33N 59°12' W 003°10'1110.7
2014-Aug-24 18:33N 59°09' W 002°50'8 8.4
2014-Aug-24 17:33N 59°01' W 002°52'3 3.0
2014-Aug-24 16:31N 58°60' W 002°58'0 0.0
2014-Aug-24 15:31N 58°60' W 002°58'0 0.0
2014-Aug-24 14:31N 58°60' W 002°58'0 0.0
2014-Aug-24 13:31N 58°60' W 002°58'0 0.0
2014-Aug-24 12:31N 58°60' W 002°58'0 0.0
2014-Aug-24 11:32N 58°60' W 002°58'0 0.0
2014-Aug-24 10:32N 58°60' W 002°58'0 0.0
2014-Aug-24 09:32N 58°60' W 002°58'0 0.0
2014-Aug-24 08:32N 58°60' W 002°58'0 0.0
2014-Aug-24 07:31N 58°60' W 002°58'0 0.1
2014-Aug-24 06:34N 59°00' W 002°58'7 6.6
2014-Aug-24 05:34N 59°00' W 002°45'1111.3
2014-Aug-24 04:33N 58°50' W 002°34'2647.4
2014-Aug-24 04:00N 58°24' W 002°36'40 1.4 320 / 151014.210.8 1.010.0 6.8
2014-Aug-23 00:27N 57°46' W 002°12'1112.3
2014-Aug-22 23:33N 57°45' W 001°52'1111.5
2014-Aug-22 22:34N 57°35' W 001°40'1211.6
2014-Aug-22 21:33N 57°24' W 001°38'1312.9
2014-Aug-22 20:32N 57°11' W 001°39'12413.4
2014-Aug-22 11:19N 55°09' W 000°55'1114.4
2014-Aug-22 10:33N 55°02' W 000°40'1514.6
2014-Aug-22 09:31N 54°52' W 000°21'1415.1
2014-Aug-22 08:34N 54°42' W 000°04'1515.4
2014-Aug-22 07:33N 54°30' E 000°15'1515.1
2014-Aug-22 06:34N 54°18' E 000°28'1515.1
2014-Aug-22 05:34N 54°04' E 000°38'4914.0
2014-Aug-22 02:05N 53°19' E 001°11'814.7
2014-Aug-22 01:33N 53°12' E 001°17'1515.5
2014-Aug-22 00:34N 52°60' E 001°31'1616.5
2014-Aug-21 23:34N 52°49' E 001°52'1515.3
2014-Aug-21 22:34N 52°35' E 002°02'1616.1
2014-Aug-21 21:34N 52°19' E 001°56'1515.3
2014-Aug-21 20:34N 52°04' E 001°50'1414.2
2014-Aug-21 19:33N 51°50' E 001°47'1413.8
2014-Aug-21 18:33N 51°36' E 001°49'1413.9
2014-Aug-21 17:34N 51°23' E 001°44'1413.5
2014-Aug-21 16:33N 51°10' E 001°35'10 8.4
2014-Aug-21 15:19N 51°07' E 001°20'2 0.2
2014-Aug-21 04:11N 51°07' E 001°22'710.6
2014-Aug-21 03:33N 51°08' E 001°33'1313.4
2014-Aug-21 02:33N 51°17' E 001°48'1515.1
2014-Aug-21 01:33N 51°30' E 002°00'1514.8
2014-Aug-21 00:31N 51°41' E 002°18'6214.0
2014-Aug-20 20:05N 52°23' E 003°32'815.1
2014-Aug-20 19:33N 52°27' E 003°43'1514.9
2014-Aug-20 18:34N 52°31' E 004°07'1413.9
2014-Aug-20 17:33N 52°28' E 004°29'3 3.2
2014-Aug-20 16:33N 52°28' E 004°34'0 0.0
2014-Aug-20 15:33N 52°28' E 004°34'0 0.0
2014-Aug-20 14:33N 52°28' E 004°34'0 0.0
2014-Aug-20 13:33N 52°28' E 004°34'0 0.0
2014-Aug-20 12:33N 52°28' E 004°34'0 0.0
2014-Aug-20 11:33N 52°28' E 004°34'0 0.0
2014-Aug-20 10:30N 52°28' E 004°34'1 1.0
2014-Aug-20 09:34N 52°28' E 004°33'1010.0
2014-Aug-20 08:33N 52°30' E 004°16'1111.1
2014-Aug-20 07:33N 52°37' E 004°03'  
Track history (hours):
 
Tides and Currents Weather Stations Pressure Air Temp Water Temp Dewpoint Dewpoint Depression Visibility Wind Speed Wind Dir Waves Ship Positions

Saga Sapphire

Last reported at 2014-Aug-30 01:00 UTC. Time now 2014-Aug-30 10:27 UTC.
Position N 52°06' W 005°42'.

Length 200 m; draft 8.4 m.

Type: Passenger vessel. MMSI: 256208000.

Wind from 270 at 24 knots

Waves 0.5 meters (2 feet), 3 second period

Barometer 1011.9 mb
Air temperature 14.9 ° C
Visibility: greater than 10.8 NM
Dewpoint 12.5 ° C
Water temperature 13.0 ° C

Date/timePositionNaut miles runAvg speedWind from/ knotsBaromVisibWave heightAir tempDewpointWater temp
2014-Aug-30 01:00N 52°06' W 005°42'8512.1 270 / 241011.910.8 0.514.912.513.0
2014-Aug-29 18:00N 53°24' W 004°48'2517.4 220 / 261005.910.8 1.016.214.115.0
2014-Aug-29 16:32N 53°33' W 004°08'1616.8
2014-Aug-29 15:34N 53°33' W 003°41'1413.8
2014-Aug-29 14:33N 53°32' W 003°18'13 9.4
2014-Aug-29 13:12N 53°24' W 003°00'0 0.0
2014-Aug-29 09:21N 53°24' W 003°00'0 0.0
2014-Aug-29 06:33N 53°24' W 003°00'4 3.5
2014-Aug-29 05:33N 53°28' W 003°03'7 7.4
2014-Aug-29 04:33N 53°31' W 003°14'1110.2
2014-Aug-29 03:30N 53°31' W 003°32'9510.0
2014-Aug-28 18:00N 52°42' W 005°48'88 4.3 180 / 241004.710.8 1.016.512.915.0
2014-Aug-27 21:33N 54°08' W 005°15'1313.5
2014-Aug-27 20:33N 54°20' W 005°04'1515.3
2014-Aug-27 19:34N 54°34' W 005°15'1413.8
2014-Aug-27 18:34N 54°44' W 005°32'1110.6
2014-Aug-27 17:34N 54°40' W 005°50'4 0.3
2014-Aug-27 06:30N 54°38' W 005°54'6 6.2
2014-Aug-27 05:34N 54°42' W 005°46'1211.8
2014-Aug-27 04:33N 54°52' W 005°36'1313.1
2014-Aug-27 03:33N 55°04' W 005°44'1212.4
2014-Aug-27 02:33N 55°14' W 005°58'1212.2
2014-Aug-27 01:34N 55°22' W 006°14'1414.1
2014-Aug-27 00:34N 55°27' W 006°37'1615.7
2014-Aug-26 23:34N 55°37' W 006°59'8615.4
2014-Aug-26 18:00N 54°42' W 008°54'612.5 090 / 101012.210.8 0.517.8 9.7
2014-Aug-26 17:29N 54°37' W 008°48'1212.6
2014-Aug-26 16:33N 54°36' W 008°28'2 0.3
2014-Aug-26 09:19N 54°38' W 008°26'0 0.0
2014-Aug-26 07:07N 54°38' W 008°26'0 0.0
2014-Aug-26 06:29N 54°38' W 008°26'6 6.0
2014-Aug-26 05:33N 54°34' W 008°34'3814.7
2014-Aug-26 03:00N 55°12' W 008°36'56 7.6 090 / 191006.010.8 0.514.3 9.9
2014-Aug-25 19:33N 55°31' W 007°03'10 9.5
2014-Aug-25 18:33N 55°32' W 006°46'610.9
2014-Aug-25 18:00N 55°30' W 006°36'511.6 140 / 121004.110.8 0.515.811.614.0
2014-Aug-25 17:33N 55°33' W 006°29'1413.8
2014-Aug-25 16:33N 55°34' W 006°04'14411.0
2014-Aug-25 03:33N 57°57' W 006°11'2239.5
2014-Aug-25 03:00N 58°12' W 006°42'2761.5 140 / 101013.810.8 0.511.3 7.1
2014-Aug-25 02:33N 58°08' W 005°52'1615.7
2014-Aug-25 01:33N 58°20' W 005°33'4715.5
2014-Aug-24 22:33N 58°51' W 004°24'1514.9
2014-Aug-24 21:33N 58°58' W 003°60'1514.5
2014-Aug-24 20:34N 59°06' W 003°36'1414.4
2014-Aug-24 19:33N 59°12' W 003°10'1110.7
2014-Aug-24 18:33N 59°09' W 002°50'8 8.4
2014-Aug-24 17:33N 59°01' W 002°52'3 3.0
2014-Aug-24 16:31N 58°60' W 002°58'0 0.0
2014-Aug-24 15:31N 58°60' W 002°58'0 0.0
2014-Aug-24 14:31N 58°60' W 002°58'0 0.0
2014-Aug-24 13:31N 58°60' W 002°58'0 0.0
2014-Aug-24 12:31N 58°60' W 002°58'0 0.0
2014-Aug-24 11:32N 58°60' W 002°58'0 0.0
2014-Aug-24 10:32N 58°60' W 002°58'0 0.0
2014-Aug-24 09:32N 58°60' W 002°58'0 0.0
2014-Aug-24 08:32N 58°60' W 002°58'0 0.0
2014-Aug-24 07:31N 58°60' W 002°58'0 0.1
2014-Aug-24 06:34N 59°00' W 002°58'7 6.6
2014-Aug-24 05:34N 59°00' W 002°45'1111.3
2014-Aug-24 04:33N 58°50' W 002°34'2647.4
2014-Aug-24 04:00N 58°24' W 002°36'40 1.4 320 / 151014.210.8 1.010.0 6.8
2014-Aug-23 00:27N 57°46' W 002°12'1112.3
2014-Aug-22 23:33N 57°45' W 001°52'1111.5
2014-Aug-22 22:34N 57°35' W 001°40'1211.6
2014-Aug-22 21:33N 57°24' W 001°38'1312.9
2014-Aug-22 20:32N 57°11' W 001°39'12413.4
2014-Aug-22 11:19N 55°09' W 000°55'1114.4
2014-Aug-22 10:33N 55°02' W 000°40'1514.6
2014-Aug-22 09:31N 54°52' W 000°21'1415.1
2014-Aug-22 08:34N 54°42' W 000°04'1515.4
2014-Aug-22 07:33N 54°30' E 000°15'1515.1
2014-Aug-22 06:34N 54°18' E 000°28'1515.1
2014-Aug-22 05:34N 54°04' E 000°38'4914.0
2014-Aug-22 02:05N 53°19' E 001°11'814.7
2014-Aug-22 01:33N 53°12' E 001°17'1515.5
2014-Aug-22 00:34N 52°60' E 001°31'1616.5
2014-Aug-21 23:34N 52°49' E 001°52'1515.3
2014-Aug-21 22:34N 52°35' E 002°02'1616.1
2014-Aug-21 21:34N 52°19' E 001°56'1515.3
2014-Aug-21 20:34N 52°04' E 001°50'1414.2
2014-Aug-21 19:33N 51°50' E 001°47'1413.8
2014-Aug-21 18:33N 51°36' E 001°49'1413.9
2014-Aug-21 17:34N 51°23' E 001°44'1413.5
2014-Aug-21 16:33N 51°10' E 001°35'10 8.4
2014-Aug-21 15:19N 51°07' E 001°20'2 0.2
2014-Aug-21 04:11N 51°07' E 001°22'710.6
2014-Aug-21 03:33N 51°08' E 001°33'1313.4
2014-Aug-21 02:33N 51°17' E 001°48'1515.1
2014-Aug-21 01:33N 51°30' E 002°00'1514.8
2014-Aug-21 00:31N 51°41' E 002°18'6214.0
2014-Aug-20 20:05N 52°23' E 003°32'815.1
2014-Aug-20 19:33N 52°27' E 003°43'1514.9
2014-Aug-20 18:34N 52°31' E 004°07'1413.9
2014-Aug-20 17:33N 52°28' E 004°29'3 3.2
2014-Aug-20 16:33N 52°28' E 004°34'0 0.0
2014-Aug-20 15:33N 52°28' E 004°34'0 0.0
2014-Aug-20 14:33N 52°28' E 004°34'0 0.0
2014-Aug-20 13:33N 52°28' E 004°34'0 0.0
2014-Aug-20 12:33N 52°28' E 004°34'0 0.0
2014-Aug-20 11:33N 52°28' E 004°34'0 0.0
2014-Aug-20 10:30N 52°28' E 004°34'1 1.0
2014-Aug-20 09:34N 52°28' E 004°33'1010.0
2014-Aug-20 08:33N 52°30' E 004°16'1111.1
2014-Aug-20 07:33N 52°37' E 004°03'  

Dump ship's entire track history